Location: Cruquius
(52.3348°N, 4.6319°E)
Time: 08:21:26
(UTC+00:00)

Cosmos 1602 - Pass Details

Date: 12 May 2021
Orbit: 514 x 532 km, 82.5° (Epoch: 20 June)

Event Time Altitude Azimuth Distance (km) Brightness Sun altitude
Rises 20:06:12 0° 348° (NNW) 2,659 8.3 -5.8°
Reaches altitude 10° 20:08:21 10° 347° (NNW) 1,769 7.3 -6.0°
Maximum altitude 20:12:13 77° 262° (W) 544 3.9 -6.5°
Drops below altitude 10° 20:16:05 10° 176° (S) 1,764 6.0 -6.9°
Enters shadow 20:17:50 - 175° (S) 2,491 6.7 -7.1°
